EHI
0 0 1 2 1 0 0 0 0 0 0 0 0 0 0 1 2 3 3 3 2 1 0 1 2 2 2 2 1 1 2 1 0 0 0 1 2 3 2 1 0 1 1
0 0 1 2 2 1 1 1 0 0 0 0 0 0 0 0 1 2 3 3 2 1 0 1 1 1 1 1 0 1 1 1 0 0 0 1 3 3 2 1 1 1 1
0 0 1 2 3 2 2 2 1 0 0 0 0 0 0 0 0 1 2 3 2 1 0 0 0 0 0 0 0 0 0 0 0 0 0 1 2 4 2 1 2 1 0
0 0 0 1 2 2 2 3 1 0 0 0 1 1 1 0 0 0 1 2 1 1 1 0 0 0 0 0 0 0 0 0 0 0 0 0 1 3 3 2 1 0 0
0 0 0 0 0 1 2 3 2 1 1 1 2 2 2 1 0 0 0 1 1 1 1 0 0 0 0 0 0 0 0 0 0 0 0 0 1 2 3 2 1 0 0
0 0 0 0 0 0 2 2 1 1 1 2 3 3 3 1 1 0 0 1 0 0 0 0 0 0 0 0 0 1 1 1 1 0 0 0 1 2 3 3 1 1 0
0 0 0 0 0 0 1 1 0 0 1 1 2 3 2 2 2 1 0 0 0 0 0 0 0 0 1 1 1 3 4 4 2 1 1 1 1 2 3 3 2 2 1
0 0 0 0 0 0 0 0 0 0 0 0 1 1 1 2 2 2 0 0 0 0 0 0 0 1 3 3 3 4 5 4 3 3 3 2 1 2 2 2 2 2 2
0 0 0 0 0 0 0 0 0 0 0 0 0 0 1 3 2 1 0 0 0 0 0 1 1 3 4 3 3 3 4 3 3 3 3 3 1 1 1 1 1 1 2
0 0 0 0 0 0 0 0 0 0 0 0 0 0 1 3 2 0 0 0 0 0 0 1 3 4 4 3 3 3 3 3 3 3 3 3 2 1 0 0 0 0 1
0 0 0 0 0 0 0 0 0 0 0 0 0 0 1 2 1 0 0 1 0 0 0 1 2 4 4 3 3 3 3 3 3 3 3 3 2 1 0 0 0 0 0
0 0 0 0 0 0 0 0 0 0 0 0 0 0 1 2 1 1 0 0 0 0 0 0 1 2 3 2 2 3 2 2 3 3 3 1 1 0 0 0 0 0 0
0 0 0 0 0 0 0 0 0 1 1 1 0 1 2 3 3 2 1 0 0 0 0 0 0 1 1 1 1 2 1 1 2 3 2 1 0 1 1 0 0 0 0
0 0 0 0 0 0 0 0 1 2 2 1 1 1 3 3 3 3 2 1 0 0 0 0 1 1 0 0 0 0 0 0 1 2 2 1 1 3 3 1 0 0 0
0 0 0 0 0 0 1 1 1 3 3 3 3 3 3 3 3 3 2 1 0 0 1 2 3 2 1 0 0 0 0 0 0 1 1 1 2 4 3 2 1 0 0
0 0 0 0 0 0 1 1 1 3 4 4 4 4 4 3 3 1 1 1 0 1 3 4 4 2 1 0 0 0 0 0 0 0 0 1 2 2 1 1 1 1 1
0 0 0 0 0 1 1 1 2 3 3 4 5 5 5 4 3 1 1 1 1 2 4 4 2 1 0 0 0 0 0 0 0 0 0 0 0 0 0 0 0 1 1
1 1 1 1 2 2 2 3 4 5 5 6 7 7 7 6 4 3 2 1 1 2 3 1 0 0 0 0 0 0 0 0 0 0 0 0 0 0 0 1 1 0 1
2 3 3 3 4 4 4 5 7 9 9 9 9 9 8 7 5 3 2 1 1 1 1 0 0 0 0 0 0 0 0 0 0 0 0 0 0 0 0 1 2 1 1
4 6 7 6 7 7 6 6 8 10 10 10 9 9 8 6 3 2 2 2 1 0 0 0 0 0 0 0 0 0 0 0 0 0 0 0 0 0 0 1 2 2 2
8 10 12 12 13 13 10 8 9 9 10 10 9 7 5 3 1 0 1 1 1 0 0 0 0 0 0 0 0 0 0 0 0 0 0 0 0 0 0 0 1 2 2
12 13 15 17 18 16 13 10 10 10 10 10 9 7 4 2 1 0 0 0 1 1 1 1 0 0 0 0 0 0 0 0 0 0 0 0 0 0 0 0 1 2 2
14 14 16 19 20 19 17 14 12 11 10 10 9 8 6 5 3 2 1 1 1 1 2 1 0 0 0 0 0 0 0 0 0 0 0 1 0 0 0 0 1 1 1
12 14 18 21 23 24 23 19 16 12 9 9 9 8 8 7 6 6 5 4 3 3 3 2 1 1 0 0 1 1 1 0 0 0 0 1 1 0 0 0 0 0 1
10 13 19 25 28 29 26 23 20 15 12 10 9 8 7 7 7 8 8 7 7 6 5 4 3 3 2 2 1 1 2 2 1 1 0 1 2 1 0 0 0 0 0
9 12 19 28 33 31 27 25 23 20 16 12 9 7 5 6 8 9 8 9 8 7 6 6 5 4 3 3 2 2 3 4 3 2 1 2 3 2 1 0 0 0 0
Wind_Speed
4 6 7 7 8 9 9 9 9 9 10 9 9 10 10 10 11 11 11 10 10 11 12 13 14 14 15 15 15 15 15 15 15 15 15 15 15 13 12 12 11 10 13
4 6 7 6 7 8 9 9 9 9 9 9 9 9 10 10 11 11 11 11 10 11 12 13 13 14 14 14 14 14 14 14 14 15 15 14 15 13 11 9 7 9 13
5 6 7 7 7 8 9 9 9 9 9 9 9 9 10 11 11 12 11 11 12 12 13 13 13 13 13 13 13 13 14 14 13 13 13 11 13 13 11 10 10 11 11
5 6 8 8 7 8 8 9 9 8 9 9 9 10 11 11 11 12 12 12 11 12 13 13 13 13 13 13 12 13 14 14 13 12 9 9 10 13 12 11 11 11 11
6 6 9 7 7 8 8 9 8 8 8 9 10 10 11 11 11 11 11 11 11 12 12 12 12 12 12 12 12 12 12 12 11 9 7 7 8 13 12 12 11 11 11
6 7 9 7 7 8 8 8 8 8 8 9 10 10 10 10 10 11 11 11 10 11 11 11 11 11 11 11 11 11 11 9 9 6 7 7 8 11 12 12 11 11 10
7 7 9 8 8 8 8 8 8 8 9 9 9 9 9 9 10 10 10 10 9 9 9 10 10 10 10 11 11 11 10 7 4 6 6 6 8 10 10 11 11 10 10
7 7 9 9 8 8 8 9 9 9 8 9 9 9 9 9 9 10 10 9 9 8 9 9 10 10 10 10 10 10 8 5 6 6 6 7 10 10 10 10 10 10 10
6 7 6 8 8 8 8 8 8 8 8 8 8 8 8 9 9 9 9 8 8 8 8 9 9 9 9 9 9 8 6 3 4 5 6 7 10 9 9 9 9 9 9
5 6 6 7 6 6 8 8 7 8 8 7 7 7 7 8 9 9 8 8 8 8 8 9 9 9 9 9 8 8 6 4 4 5 4 8 11 9 9 9 9 8 8
5 5 5 6 5 6 7 7 6 6 6 5 6 6 3 4 6 7 9 9 8 8 8 9 9 9 8 9 8 7 6 3 5 3 5 11 9 8 7 8 8 7 7
5 5 5 5 4 5 5 4 3 4 5 4 4 4 4 4 4 6 9 8 7 7 8 8 8 8 6 6 8 7 3 3 4 4 7 10 7 6 6 6 7 7 7
5 5 5 5 4 4 4 3 3 3 3 4 5 4 4 3 4 4 3 5 5 5 5 7 5 3 3 4 3 4 4 3 3 3 7 8 5 5 5 5 5 6 6
5 5 5 5 4 3 3 3 2 3 3 3 4 4 4 3 3 4 3 3 3 3 3 3 3 4 4 4 4 4 5 3 3 3 6 8 5 4 4 5 5 5 6
5 5 5 3 3 3 2 1 3 3 3 4 3 4 3 3 3 3 3 2 3 3 3 3 3 4 4 4 4 4 4 4 4 4 5 7 5 3 3 4 4 4 5
4 5 4 3 4 3 2 2 2 3 3 3 3 4 3 3 3 3 3 3 3 3 3 3 4 4 3 4 4 4 3 3 4 3 3 5 5 3 3 3 3 4 5
4 4 3 3 3 3 2 2 2 2 2 2 3 3 3 3 3 2 2 2 3 3 4 3 4 4 3 4 4 4 3 3 3 3 3 2 4 5 4 3 3 3 4
4 4 3 3 4 4 2 1 1 2 2 2 2 2 3 3 2 1 2 3 2 2 3 3 3 3 3 3 3 2 3 3 3 2 2 2 1 2 4 3 2 2 3
5 5 4 3 3 3 3 2 1 1 1 1 2 2 2 2 2 1 2 3 1 2 2 2 4 2 3 3 3 3 2 2 2 2 2 2 2 1 2 5 4 3 2
6 5 5 4 4 3 3 2 1 1 1 1 2 2 2 2 1 1 2 2 1 2 2 3 3 2 2 2 2 3 2 2 1 2 1 2 2 1 1 2 3 4 3
6 6 6 5 4 3 2 2 1 2 1 1 2 2 2 1 1 0 1 2 0 2 2 2 2 3 2 2 2 2 3 2 2 1 1 0 1 1 1 1 0 0 3
7 6 6 6 5 4 2 1 1 1 1 1 1 2 1 1 1 1 1 0 1 2 2 2 2 1 2 1 1 1 2 3 2 2 1 1 1 1 1 1 1 1 1
8 7 6 5 5 4 3 3 2 2 2 2 2 1 1 1 1 1 0 0 0 1 2 2 2 2 1 1 1 2 1 1 2 3 2 2 2 1 1 1 1 1 1
8 8 7 6 5 5 5 3 3 2 1 1 0 1 1 1 1 1 0 0 1 1 1 2 2 1 2 1 1 1 1 1 1 2 2 2 2 1 2 1 2 2 1
8 8 8 7 6 5 5 4 4 2 1 1 1 2 0 1 1 1 1 0 1 1 1 1 1 2 2 1 1 1 1 2 2 2 2 2 1 1 1 1 1 1 2
8 8 8 8 7 6 5 4 4 3 2 1 1 1 1 1 0 1 1 1 1 1 1 2 2 3 2 2 2 2 2 1 2 1 2 2 2 2 2 2 1 2 2
Wind_Direction
58 70 68 59 61 65 66 71 76 82 84 87 90 92 94 94 95 96 99 104 103 107 109 114 120 120 123 128 131 133 135 134 135 135 135 134 133 134 133 137 142 128 120
70 77 79 63 63 65 69 71 74 78 82 87 91 92 93 96 97 95 95 99 101 108 112 114 117 120 120 123 129 134 136 134 135 136 137 135 133 133 135 137 129 117 128
78 87 91 72 67 65 68 72 73 76 80 87 92 94 95 95 96 95 94 93 94 102 109 112 114 115 120 126 129 134 136 136 137 143 153 144 135 139 141 135 128 131 135
85 87 76 71 66 65 67 69 71 76 80 86 90 92 96 96 95 95 94 91 91 100 103 108 112 111 116 124 129 130 132 136 143 161 160 137 137 139 143 139 140 142 142
89 85 81 66 66 66 65 66 69 74 80 88 92 91 93 96 96 95 94 92 90 94 99 102 107 110 112 119 122 124 129 139 155 175 134 134 131 139 144 145 145 147 149
96 90 86 72 66 68 68 66 65 71 80 90 93 92 94 95 96 97 97 93 90 92 94 98 102 109 113 118 121 126 130 141 172 142 132 135 131 138 147 150 150 151 153
96 91 91 80 72 68 68 66 67 73 81 94 95 95 94 95 96 97 96 93 92 94 97 97 100 106 111 116 121 124 127 140 148 127 131 127 122 136 149 152 150 151 152
98 99 102 97 81 73 69 65 65 70 80 91 94 95 96 95 94 95 96 94 93 97 101 100 98 106 110 115 119 122 129 160 136 121 125 120 120 137 145 145 145 148 154
95 96 98 105 107 97 77 63 64 70 81 89 93 94 98 100 99 97 98 95 95 100 104 105 104 109 111 113 119 122 126 147 138 124 125 118 127 137 143 146 149 151 156
97 94 93 82 84 99 101 84 70 73 81 89 94 96 109 121 118 115 113 98 96 101 104 108 112 113 115 116 120 126 139 187 138 131 119 116 132 143 149 154 154 158 159
99 96 97 100 98 91 90 95 99 100 99 118 117 115 131 104 105 117 91 92 93 101 107 110 114 119 127 129 131 139 170 175 126 113 101 109 131 143 149 155 158 160 161
110 113 102 93 95 93 88 94 84 91 90 82 75 85 87 85 80 87 108 105 104 109 118 114 124 146 163 138 139 166 158 126 115 114 104 115 135 153 161 162 168 172 176
115 109 104 96 75 74 87 86 75 79 84 90 79 78 81 82 92 90 95 114 116 123 111 124 144 118 109 101 120 122 105 106 99 104 108 125 140 157 165 167 175 176 180
114 107 102 105 103 73 59 78 91 88 86 79 81 63 76 76 76 81 78 84 94 93 94 98 101 102 101 103 100 102 112 110 100 97 112 128 139 154 165 171 171 177 185
124 120 114 113 103 94 77 56 77 74 77 87 80 75 65 82 79 83 79 70 77 91 107 105 105 106 108 111 106 103 104 100 97 97 109 120 128 141 149 162 173 181 182
141 132 125 129 120 113 108 94 81 86 92 83 83 82 73 82 82 83 96 82 77 76 77 95 102 108 109 103 103 99 97 103 96 88 97 122 127 128 134 146 157 166 172
145 135 141 146 136 133 120 108 104 97 90 86 90 93 86 86 90 98 92 97 82 89 103 108 105 113 118 114 108 109 104 86 85 88 92 108 137 138 129 142 157 165 174
159 151 163 162 140 139 125 71 57 54 70 82 89 98 98 82 88 84 88 87 93 107 109 110 116 112 107 108 105 101 100 102 100 102 107 103 101 125 143 132 143 162 175
174 170 172 172 158 152 147 152 132 92 63 70 92 92 98 101 99 97 81 80 116 103 99 107 101 101 109 109 116 113 104 97 98 101 95 94 94 92 115 130 138 124 143
176 176 177 179 177 178 177 167 162 129 119 90 91 82 82 97 89 55 113 101 99 99 95 89 101 109 111 119 113 101 99 105 107 106 117 115 111 115 90 106 151 151 135
179 180 185 187 177 192 193 198 163 144 128 111 115 95 95 88 92 66 55 107 115 104 101 127 138 139 136 131 139 136 133 130 119 122 145 104 98 86 77 84 100 244 151
183 186 187 188 186 196 178 182 162 87 114 106 78 87 76 78 71 135 106 169 129 127 142 147 158 161 156 177 232 197 169 153 151 140 142 144 114 112 101 83 62 19 337
185 187 187 183 183 191 189 186 166 167 193 154 148 136 80 52 61 30 72 291 169 188 150 175 183 188 188 184 250 282 271 130 137 124 105 95 81 66 79 93 91 55 7
186 181 181 179 181 183 191 197 201 204 179 111 138 103 104 68 27 20 20 251 262 231 172 205 168 208 217 210 171 250 309 338 261 144 136 115 103 81 42 20 54 60 53
182 177 174 173 175 180 191 194 210 214 203 155 136 117 142 100 26 347 344 301 251 242 204 231 195 234 231 246 236 212 203 208 242 230 164 145 133 97 82 58 53 50 62
180 179 173 168 172 178 188 193 202 206 209 201 190 166 205 142 107 42 360 320 283 289 217 216 223 212 237 249 257 250 244 239 225 218 202 180 149 104 89 69 52 55 67